Regional Weather Roundup
Issued by NWS Cleveland, OH

Home | Current Version | Previous Version | Graphics & Text | Print | Product List | Glossary On
Versions: 1 2 3 4 5 6 7 8 9 10 11 12 13 14 15 16 17 18 19 20 21 22 23 24 25 26 27 28 29 30 31 32 33 34 35 36 37 38 39 40 41 42 43 44 45 46 47 48 49 50
000
ASUS41 KCLE 251000
RWRCLE
OHIO REGIONAL WEATHER ROUNDUP
NATIONAL WEATHER SERVICE WILMINGTON, OH
600 AM EDT TUE APR 25 2017

NOTE: "FAIR" INDICATES FEW OR NO CLOUDS BELOW 12,000 FEET WITH NO
SIGNIFICANT WEATHER AND/OR OBSTRUCTIONS TO VISIBILITY.

OHZ001>008-015>018-024>027-034-035-043-044-251100-
   NORTHWEST OHIO

CITY           SKY/WX    TMP DP  RH WIND       PRES   REMARKS
DEFIANCE       CLOUDY    51  46  83 E7        29.84S
FINDLAY        CLOUDY    55  46  71 CALM      29.83R
TOLEDO EXPRESS CLOUDY    53  48  83 E6        29.84S
TOLEDO EXEC    CLOUDY    55  48  77 NE7       29.86S
LIMA           CLOUDY    52  48  86 CALM      29.83R
$$

OHZ009>014-019>023-028>033-038-089-251100-
   NORTHEAST OHIO

CITY           SKY/WX    TMP DP  RH WIND       PRES   REMARKS
CLE-HOPKINS    CLOUDY    58  43  57 SE12      29.88F
CLE-LAKEFRONT  CLOUDY    57  44  62 SE13      29.85F
CUY CO. ARPT   NOT AVBL
LORAIN-ELYRIA  CLOUDY    55  43  63 SE13      29.85F
ASHTABULA      CLOUDY    55  41  59 SE8       29.91S
AKRON-CANTON   CLOUDY    54  43  66 SE10      29.88S
WOOSTER        NOT AVBL
MANSFIELD      CLOUDY    50  45  83 SE14      29.84F
YOUNGSTOWN     CLOUDY    53  40  61 SE10      29.91S
$$

OHZ042-051>053-060>062-070>072-077>081-251100-
  SOUTHWEST OHIO

CITY           SKY/WX    TMP DP  RH WIND       PRES   REMARKS
CINC-COVINGTON FAIR      55  51  86 NE6       29.79R
CINC-LUNKEN    FAIR      51  51 100 CALM      29.81S
HAMILTON       FAIR      48  48 100 CALM      29.82R
DAYTON         NOT AVBL
WRIGHT-PAT AFB FAIR      52  48  88 NE3       29.81R
DAYTON GENERAL FAIR      49  46  90 E6        29.80S
WILMINGTON     CLOUDY    52  49  89 E7        29.80S
$$

OHZ036-037-039>041-045>050-054>059-063>069-073>076-082>088-251100-
  CENTRAL AND SOUTHEAST OHIO

CITY           SKY/WX    TMP DP  RH WIND       PRES   REMARKS
COLUMBUS       CLOUDY    55  47  74 E9        29.82S
OSU AIRPORT    MOCLDY    53  48  83 E7        29.82S
BOLTON FIELD   NOT AVBL
RICKENBACK AFB NOT AVBL
NEWARK         CLOUDY    54  46  74 VRB3      29.84R
MARION         CLOUDY    54  46  74 SE14      29.83F
LANCASTER      CLOUDY    55  47  74 CALM      29.84R
ZANESVILLE     CLOUDY    54  47  77 NE5       29.84S
NEW PHILLY     LGT RAIN  53  47  79 E6        29.88R
$$




USA.gov is the U.S. government's official web portal to all federal, state and local government web resources and services.